Wind_Speed
4 4 5 4 5 6 7 5 4 4 4 4 3 1 3 3 2 2 4 4 4 5 9 10 5 6 11 10 11 11 12 12 11
7 6 6 8 7 8 9 8 6 6 7 7 5 4 2 2 1 1 2 1 1 2 6 10 8 8 8 9 10 10 9 9 10
9 9 8 9 9 10 10 10 8 8 9 10 8 7 5 5 3 2 1 2 2 4 4 3 7 8 8 7 8 7 7 8 7
12 11 11 11 11 12 12 11 11 10 10 12 11 10 8 7 6 4 3 1 5 6 6 4 8 7 7 6 6 6 6 6 6
15 15 14 14 13 14 14 15 14 13 12 13 14 13 12 10 9 7 5 4 2 6 4 8 8 7 6 5 5 4 4 4 4
18 19 17 17 17 16 16 17 16 16 15 15 16 17 16 14 12 10 9 7 5 6 7 10 10 7 6 5 4 3 2 1 1
20 21 21 21 20 20 19 18 19 19 20 18 19 20 19 18 16 13 12 11 10 9 8 9 10 10 9 7 6 5 4 3 3
23 23 22 23 23 23 23 22 23 23 23 22 22 22 21 21 19 17 16 14 13 12 11 10 11 11 11 10 9 8 7 6 5
24 23 26 26 25 26 25 26 27 26 25 25 25 25 24 23 22 21 19 17 16 14 15 12 12 13 13 12 11 10 8 7 7
27 27 25 25 26 28 29 29 29 30 29 28 28 28 28 26 25 24 23 21 19 18 16 16 14 15 16 15 14 12 11 9 9
31 31 30 28 26 27 27 32 33 32 32 32 31 32 31 30 29 27 26 25 22 21 19 18 17 17 18 17 17 15 14 12 11
35 36 35 34 32 31 28 28 31 34 35 35 35 35 34 33 32 30 29 29 27 24 23 21 19 17 19 20 18 18 16 15 14
37 39 39 37 36 34 33 32 31 33 40 42 39 38 38 36 35 33 31 31 32 29 26 24 22 20 19 19 21 20 19 18 17
36 38 39 40 41 40 38 37 34 32 34 43 44 44 39 39 38 36 35 33 32 32 30 27 25 23 21 20 21 22 22 21 19
39 39 37 37 38 41 42 42 40 40 36 37 32 46 42 45 40 39 37 35 36 33 32 30 28 26 24 23 23 23 24 23 22
45 42 40 37 37 38 39 42 43 44 42 36 34 36 30 56 43 41 39 38 37 38 35 32 30 28 26 24 24 24 24 25 25
31 37 41 40 39 40 39 39 41 45 43 35 28 26 25 34 29 46 41 39 39 39 38 36 32 30 27 26 25 24 24 25 25
21 23 27 30 31 34 36 36 38 41 45 43 29 15 21 16 24 33 33 41 42 43 41 39 35 33 30 27 27 27 25 24 24
19 21 24 27 30 32 32 31 31 32 39 37 40 40 37 17 10 19 23 29 35 40 37 44 42 37 35 32 30 27 26 25 26
23 23 24 24 25 27 28 29 32 34 34 35 32 36 43 43 42 30 21 23 26 31 35 36 36 40 37 36 37 31 29 27 29
Wind_Direction
293 272 249 250 221 217 211 230 239 241 225 223 234 241 172 158 141 99 105 206 262 161 153 113 149 137 120 113 107 107 105 101 100
274 285 267 258 246 230 227 229 243 238 233 231 237 255 224 201 190 78 52 52 78 112 145 142 133 128 117 120 114 116 103 101 105
260 271 280 271 258 246 242 239 239 241 239 238 239 248 245 235 251 302 200 130 216 144 190 192 160 147 135 122 120 118 110 106 97
259 261 270 274 267 252 248 245 241 243 242 245 240 246 243 244 247 251 210 295 210 192 197 193 194 168 148 140 125 118 109 100 93
269 268 272 273 272 263 251 248 243 244 244 244 244 242 242 246 250 247 252 247 275 222 220 203 193 187 166 155 147 130 120 111 103
265 271 274 275 271 268 259 250 247 245 245 244 244 243 245 248 248 246 247 245 255 266 257 229 227 214 200 186 182 175 175 166 143
265 266 271 270 270 266 263 255 252 247 244 244 243 246 246 249 250 249 245 245 247 252 265 244 229 219 216 212 214 215 222 233 249
265 265 266 270 270 267 262 256 251 249 246 245 245 246 246 248 248 248 245 244 242 246 260 253 240 236 231 228 227 226 232 237 250
269 271 265 265 268 268 263 260 257 253 251 248 245 246 247 246 247 248 244 244 241 238 252 261 247 239 241 240 238 237 242 251 261
267 266 264 265 267 263 264 261 259 258 255 251 247 245 246 246 246 247 244 244 243 242 241 254 257 249 242 242 242 242 244 249 258
264 266 267 265 265 268 269 269 257 258 258 255 250 247 246 246 246 246 245 243 243 243 243 243 247 251 247 247 245 246 248 252 257
257 258 260 263 264 265 267 269 280 253 257 256 253 249 246 245 245 245 246 243 242 242 242 244 244 250 248 249 251 249 250 254 259
263 257 255 257 259 261 262 263 264 269 262 256 255 251 247 245 244 245 246 245 243 243 242 243 245 245 255 255 245 252 255 253 255
269 267 263 257 256 256 258 260 262 263 261 255 261 257 251 248 246 244 246 247 246 245 245 245 245 248 252 256 259 249 250 254 255
265 266 268 265 261 257 256 257 257 261 263 263 270 255 260 258 246 245 246 249 248 247 246 246 245 245 250 254 256 259 258 251 254
264 263 263 264 266 265 262 261 260 258 261 266 266 266 262 255 261 254 246 244 248 246 246 245 246 247 249 252 255 256 259 260 259
271 263 261 262 265 268 267 265 265 262 258 259 261 264 265 255 263 246 254 246 245 244 244 244 246 247 250 252 255 257 259 261 263
284 272 264 263 262 264 266 266 262 264 260 256 247 253 242 256 253 244 245 248 248 248 244 245 245 248 250 254 256 256 258 261 262
280 275 269 267 265 263 263 266 268 267 264 259 250 246 248 252 252 246 249 249 246 249 249 248 248 247 250 255 255 255 260 257 261
276 278 274 269 266 267 268 267 266 260 259 257 254 251 250 248 251 257 254 245 245 247 249 254 257 254 249 254 255 256 260 263 262
Height
1552 1552 1552 1552 1552 1553 1553 1553 1553 1553 1553 1553 1553 1553 1553 1552 1552 1553 1553 1554 1553 1552 1552 1554 1554 1554 1553 1554 1554 1554 1554 1554 1554
1551 1552 1552 1552 1552 1552 1552 1553 1553 1553 1552 1552 1552 1552 1553 1553 1552 1553 1553 1553 1553 1553 1553 1554 1554 1553 1554 1554 1554 1555 1554 1555 1555
1549 1550 1551 1551 1551 1551 1551 1551 1551 1551 1552 1552 1551 1551 1552 1552 1553 1552 1553 1553 1554 1554 1554 1554 1554 1554 1554 1554 1554 1555 1555 1555 1555
1548 1548 1549 1549 1549 1549 1550 1550 1550 1550 1550 1550 1550 1550 1550 1551 1552 1552 1552 1553 1553 1553 1554 1554 1553 1554 1554 1554 1555 1554 1555 1555 1555
1548 1546 1547 1547 1547 1547 1548 1548 1548 1548 1548 1548 1549 1549 1549 1549 1550 1551 1551 1552 1552 1552 1553 1553 1553 1553 1554 1554 1555 1555 1555 1555 1555
1544 1544 1544 1544 1544 1544 1545 1545 1545 1546 1546 1546 1546 1547 1547 1548 1548 1549 1550 1550 1551 1551 1551 1551 1551 1552 1553 1554 1554 1555 1555 1555 1555
1540 1540 1540 1541 1541 1541 1542 1542 1543 1543 1543 1543 1544 1543 1544 1545 1546 1547 1547 1548 1549 1549 1549 1549 1550 1550 1551 1552 1553 1554 1554 1554 1554
1535 1536 1536 1536 1537 1537 1537 1538 1538 1538 1539 1540 1540 1540 1540 1541 1542 1543 1544 1545 1546 1547 1547 1547 1548 1548 1549 1550 1551 1552 1552 1552 1552
1531 1531 1531 1531 1532 1532 1533 1533 1534 1534 1535 1536 1536 1537 1537 1537 1538 1539 1541 1542 1542 1544 1545 1544 1545 1546 1547 1548 1549 1550 1550 1551 1551
1525 1525 1525 1526 1527 1527 1527 1528 1528 1529 1530 1531 1531 1532 1532 1533 1533 1534 1536 1537 1539 1540 1541 1542 1542 1542 1544 1545 1546 1547 1548 1548 1549
1519 1519 1519 1520 1521 1521 1521 1521 1521 1522 1523 1524 1525 1525 1526 1527 1528 1529 1531 1532 1534 1535 1537 1538 1539 1540 1541 1542 1543 1544 1545 1545 1546
1511 1511 1512 1513 1514 1515 1515 1516 1514 1512 1516 1516 1517 1518 1519 1521 1522 1524 1525 1527 1529 1530 1531 1533 1535 1536 1537 1539 1539 1540 1541 1542 1543
1503 1502 1503 1506 1507 1507 1508 1509 1509 1509 1508 1508 1508 1509 1512 1514 1515 1517 1519 1521 1523 1524 1525 1527 1530 1531 1533 1534 1536 1537 1537 1538 1539
1494 1494 1495 1497 1498 1499 1500 1501 1502 1502 1502 1498 1500 1501 1504 1508 1509 1510 1512 1515 1516 1518 1521 1522 1523 1526 1528 1529 1531 1532 1533 1534 1534
1485 1485 1486 1488 1488 1489 1491 1492 1494 1494 1495 1496 1495 1490 1492 1498 1501 1503 1505 1507 1510 1512 1514 1517 1517 1519 1521 1523 1525 1527 1528 1529 1531
1474 1475 1476 1478 1479 1480 1482 1483 1484 1485 1488 1489 1489 1488 1489 1490 1491 1495 1497 1497 1501 1505 1507 1509 1511 1513 1515 1516 1519 1521 1523 1524 1525
1462 1463 1466 1469 1470 1470 1472 1474 1475 1475 1480 1482 1485 1483 1483 1480 1480 1482 1487 1489 1492 1496 1499 1501 1503 1506 1508 1510 1512 1514 1516 1518 1519
1456 1456 1456 1459 1460 1460 1461 1464 1466 1466 1469 1473 1477 1476 1473 1474 1474 1474 1476 1479 1482 1486 1490 1493 1495 1498 1500 1503 1506 1507 1509 1511 1512
1450 1450 1450 1451 1451 1451 1453 1455 1457 1459 1459 1463 1464 1466 1466 1468 1466 1467 1468 1471 1472 1477 1480 1483 1486 1489 1492 1495 1497 1500 1502 1503 1505
1443 1443 1444 1443 1443 1444 1446 1448 1448 1448 1450 1454 1457 1457 1457 1459 1461 1461 1464 1465 1466 1469 1470 1472 1473 1479 1481 1484 1489 1492 1494 1496 1498